Theta_e
310 312 313 314 316 316 318 320 319 317 318 317 316 316 316 316 317 309 304 301 304 311 312 311 310 311 310 309 308 305 310 309 311 309 311 308 310 308 308 310 309 307 308 308 314
308 308 311 312 312 312 315 316 320 318 318 318 317 316 316 316 314 308 302 300 305 308 312 309 310 308 308 309 309 309 308 309 308 307 309 310 309 309 310 310 310 309 309 310 314
306 307 306 310 311 311 310 313 317 319 318 318 318 317 316 314 307 303 308 301 303 312 312 310 311 308 309 309 309 307 309 306 308 307 309 309 309 308 308 309 307 308 308 309 311
307 304 305 306 309 310 310 310 312 315 317 317 317 317 317 313 305 308 311 307 305 311 310 309 308 308 308 309 308 309 307 306 308 310 308 308 308 309 306 308 308 305 308 308 310
308 306 304 304 305 307 309 310 310 312 313 315 316 315 316 309 309 308 311 305 314 313 310 307 308 307 308 307 308 309 309 308 308 309 308 308 308 307 305 304 304 305 305 308 310
308 307 306 304 304 304 306 307 309 309 310 310 313 314 316 315 314 308 310 313 312 310 309 307 307 307 307 308 308 308 308 309 308 309 308 309 308 309 306 305 303 303 305 307 308
306 307 307 305 304 304 303 305 307 309 309 309 309 312 314 316 313 311 311 310 311 309 307 308 308 308 307 309 306 308 310 309 308 308 309 307 308 308 306 306 306 305 302 304 307
304 305 307 306 305 304 303 302 304 306 308 308 307 309 313 314 314 314 314 313 309 309 308 308 309 307 309 307 307 309 307 309 308 307 309 307 310 309 306 305 306 305 303 303 303
304 304 307 306 305 304 303 302 302 303 306 307 306 308 311 312 312 312 313 309 309 308 308 308 308 307 309 308 308 305 308 307 308 307 309 305 308 308 306 306 306 305 304 303 302
303 304 303 307 305 305 303 304 301 301 303 304 306 309 309 311 311 312 312 309 307 306 307 307 306 307 305 307 311 309 308 307 308 308 308 308 306 306 306 307 307 306 306 305 304
302 303 304 302 306 305 304 303 301 302 303 304 304 307 308 308 306 307 310 308 306 306 308 306 308 310 308 307 307 307 308 308 308 309 310 309 308 308 308 308 307 308 307 306 305
302 302 303 303 303 305 304 301 300 302 305 302 303 306 307 308 307 305 308 309 307 308 305 308 310 306 306 307 307 307 309 309 309 310 309 309 309 307 307 307 308 308 307 307 306
302 302 303 304 303 305 304 301 300 302 305 304 303 304 308 308 310 306 307 309 308 307 307 308 308 306 308 307 308 307 308 309 309 309 308 309 308 308 308 307 306 306 307 307 307
301 302 303 303 304 304 303 301 300 300 303 304 306 305 308 307 309 308 307 310 309 309 306 307 305 307 307 309 308 310 306 308 309 309 309 307 310 307 308 308 308 308 306 307 306
301 302 302 302 302 302 300 301 299 299 303 300 306 306 307 310 307 307 307 309 311 309 308 307 305 307 308 308 307 308 305 307 307 308 309 308 309 306 306 308 308 307 305 304 302
302 301 302 303 298 299 299 298 299 300 301 299 308 308 309 309 307 307 308 308 308 309 308 307 305 305 306 305 306 305 306 306 304 306 310 307 309 308 308 309 309 308 307 301 303
301 301 301 302 297 298 298 299 300 301 299 303 309 307 307 308 309 308 310 311 312 313 314 309 308 307 306 307 306 308 308 311 310 308 312 305 308 311 308 306 306 307 304 301 303
301 301 301 298 298 299 299 299 300 293 298 302 306 307 307 306 308 308 311 312 309 309 310 312 313 307 306 307 308 309 310 312 313 313 311 305 310 309 305 303 301 301 304 306 306
301 301 300 296 297 298 298 299 295 295 299 303 307 307 309 308 306 308 310 311 310 308 311 312 312 306 305 306 308 308 311 308 310 299 310 307 306 305 304 303 303 301 302 305 306
301 299 296 297 297 296 297 298 294 299 303 304 306 306 307 309 306 308 308 308 310 308 306 309 312 307 306 307 307 308 308 311 313 316 314 312 310 311 309 305 304 305 303 303 305
294 296 295 297 297 298 298 295 296 299 303 304 303 301 305 306 306 308 307 306 309 309 307 307 309 308 307 309 310 308 310 309 310 311 316 314 311 305 308 304 304 304 303 304 304
292 295 295 297 294 296 298 295 299 301 302 303 305 304 304 305 307 307 307 307 306 308 309 307 307 307 309 307 306 308 310 310 314 312 308 311 310 301 302 302 304 306 305 303 302
295 295 296 295 295 293 294 297 298 300 300 302 303 304 303 304 305 307 307 304 305 307 309 308 309 308 307 307 304 307 307 308 308 307 310 312 310 300 301 302 303 305 305 302 303
291 294 292 295 291 291 293 295 295 299 300 298 300 302 304 305 302 304 306 305 303 306 309 309 306 309 309 308 308 309 308 307 310 313 311 310 308 303 302 302 302 302 302 302 302
288 288 287 293 292 290 290 293 295 296 299 301 297 301 302 304 304 304 303 305 306 309 309 309 309 305 307 307 307 309 309 307 308 310 312 311 307 305 302 301 300 300 301 302 302
287 289 283 287 293 293 291 291 296 297 297 298 298 295 302 303 303 304 305 304 306 308 307 308 301 301 309 308 306 308 308 307 308 309 308 306 307 304 304 300 301 300 302 303 303
287 287 289 292 290 292 290 293 296 296 296 297 300 299 302 302 301 301 301 302 304 306 309 309 303 305 311 305 309 310 306 307 308 306 308 309 308 305 305 301 303 301 303 304 304
Wind_Speed
20 19 17 17 15 16 15 18 16 13 13 12 12 12 14 15 17 10 8 12 12 9 13 12 8 7 6 3 3 3 3 4 5 7 5 5 5 2 1 2 3 6 4 1 14
16 20 19 19 18 21 18 18 17 15 14 12 12 13 14 18 16 14 20 14 13 16 16 17 6 8 2 3 2 3 4 9 6 5 5 3 4 5 2 1 4 3 2 4 25
21 17 22 21 18 18 21 19 15 15 12 14 11 12 13 16 5 7 4 23 17 17 13 15 16 6 4 3 5 5 6 5 4 5 4 4 2 5 5 5 9 8 6 7 13
22 21 19 21 20 18 18 20 20 16 10 11 11 11 12 7 6 6 10 12 18 18 11 11 5 7 6 6 5 3 7 5 2 3 4 3 2 4 8 8 3 8 3 8 10
24 23 21 20 23 20 18 18 19 16 14 12 11 10 9 3 9 13 6 12 14 21 15 6 5 6 7 6 6 4 4 6 5 2 3 1 6 6 7 12 7 2 6 10 11
25 26 27 24 20 21 19 22 20 20 17 15 15 15 6 8 10 10 4 8 10 17 9 9 8 5 5 5 7 5 6 1 2 3 3 4 3 1 5 3 7 7 9 9 10
23 27 28 26 22 21 19 18 22 21 17 16 15 12 9 16 9 3 3 5 12 12 4 10 6 6 5 2 5 4 2 2 5 4 4 5 7 13 7 3 6 6 7 9 11
25 26 28 28 26 22 19 18 19 17 15 12 16 12 13 10 21 33 33 25 14 14 13 10 8 3 3 1 5 4 3 2 3 7 4 7 10 4 1 4 9 7 8 7 9
27 26 24 29 26 23 18 15 15 15 12 13 11 6 11 6 19 35 23 9 13 9 12 2 5 4 3 6 2 5 4 6 6 9 4 6 6 4 1 2 7 7 7 7 8
29 29 30 25 27 24 20 14 13 16 10 10 11 8 9 7 10 16 24 16 4 5 3 4 3 5 2 5 8 6 5 4 5 4 4 4 9 15 6 4 9 9 8 9 9
30 27 25 33 27 27 20 8 1 4 12 9 10 11 4 21 7 7 18 14 5 4 8 5 6 19 13 11 7 5 4 5 4 4 4 8 8 15 4 5 11 13 10 10 11
32 28 27 26 26 29 26 8 9 3 7 21 20 18 20 3 5 6 18 10 7 6 6 3 17 7 10 7 6 5 5 4 3 2 4 5 10 11 11 7 10 11 11 12 6
32 31 28 26 34 31 28 27 20 7 5 8 16 18 9 12 5 7 14 8 8 9 15 12 2 11 12 6 10 5 7 4 3 1 3 5 8 7 10 4 6 10 14 12 15
30 31 29 28 26 31 17 21 17 5 5 5 8 9 11 6 6 12 18 10 5 17 9 9 4 12 7 14 13 15 7 6 4 3 5 1 8 5 6 7 6 10 10 14 8
33 31 32 28 12 13 13 22 15 6 5 6 7 10 13 14 8 8 18 5 11 9 7 9 9 9 8 8 13 9 9 10 4 2 3 3 3 6 3 6 10 11 10 8 8
33 31 28 27 20 21 21 22 14 5 8 3 6 13 15 13 5 5 6 4 4 6 3 7 3 9 11 6 14 8 8 6 4 4 7 8 6 5 6 7 7 1 2 7 8
33 31 27 24 12 27 33 15 6 7 1 5 6 15 21 15 16 8 15 19 10 8 9 1 5 4 4 7 4 4 9 1 1 0 8 2 7 12 6 10 6 6 7 7 7
34 30 26 24 30 33 27 8 5 8 9 3 5 12 18 6 15 7 18 18 14 5 6 10 6 10 6 7 10 13 12 6 8 5 4 0 8 6 6 6 6 6 4 1 3
34 28 21 26 34 33 7 8 9 6 9 6 4 10 9 10 9 9 16 26 23 19 11 13 11 2 7 5 15 7 14 9 5 2 3 5 7 9 6 7 4 6 4 3 1
33 14 14 35 34 21 4 9 5 2 2 2 10 8 9 13 7 19 14 14 13 19 3 6 4 4 3 4 1 12 11 6 2 5 4 5 4 4 3 5 2 2 3 1 2
13 4 18 33 27 5 7 7 5 1 1 2 2 4 8 8 7 17 11 5 26 20 12 7 4 1 6 9 13 4 9 2 4 5 6 2 5 6 5 3 6 2 3 3 3
4 4 22 32 4 2 5 6 3 3 2 2 3 2 6 9 13 12 12 20 14 14 20 9 5 4 8 2 3 4 9 20 8 6 3 1 5 3 3 6 4 2 4 4 4
5 4 13 13 7 4 1 4 3 4 4 5 3 3 2 5 4 12 4 4 1 16 16 12 5 4 3 4 3 5 3 4 5 3 7 6 6 1 4 4 2 2 2 2 2
3 5 3 1 3 6 4 2 5 3 2 2 3 2 2 4 3 5 10 5 7 13 10 15 3 18 14 17 5 7 11 10 17 12 11 10 5 5 6 6 5 5 5 4 3
3 2 2 7 8 4 3 7 6 5 4 5 2 7 3 3 3 4 4 3 4 5 12 9 16 4 7 3 9 13 12 10 9 17 13 14 8 8 10 10 7 6 4 4 5
5 5 3 1 14 7 2 6 9 5 7 6 6 4 6 5 8 4 3 4 7 6 8 5 4 5 3 2 5 4 12 13 15 15 7 5 6 6 2 7 6 8 6 5 6
3 4 5 5 5 7 5 6 7 9 3 3 3 4 6 6 3 6 5 4 2 7 9 11 5 5 20 5 5 2 10 13 11 6 15 9 11 5 4 8 8 8 5 6 6
Wind_Direction
299 304 297 296 292 295 291 279 264 265 271 288 308 319 328 328 315 292 244 228 231 219 176 166 164 160 160 136 117 148 86 210 225 163 241 160 187 183 324 154 216 197 177 179 158
296 289 298 291 288 288 294 289 277 260 266 275 285 305 319 326 306 250 254 243 211 198 179 161 157 142 158 175 178 137 165 214 210 195 210 190 181 173 139 252 270 262 179 147 163
283 285 279 286 285 289 286 288 292 282 273 269 277 292 314 329 308 250 301 220 203 191 200 184 157 142 171 143 199 182 211 213 246 232 174 181 218 174 178 219 222 209 198 166 173
272 282 281 274 282 279 288 287 287 285 291 276 271 297 308 325 263 355 329 204 190 186 180 152 131 152 166 192 182 188 229 188 253 201 161 197 149 235 192 225 147 224 144 165 184
262 267 269 277 274 274 279 284 282 285 280 283 283 291 301 229 254 314 337 170 182 182 181 156 155 143 180 194 137 212 224 185 240 183 245 304 242 246 250 253 242 194 174 193 197
268 259 265 262 263 273 277 275 282 278 275 284 287 295 252 239 260 291 261 187 182 185 183 162 192 196 178 203 180 211 203 221 189 211 239 225 271 65 258 241 247 219 214 207 203
286 268 257 260 259 256 261 269 269 270 270 274 285 296 252 246 263 192 337 276 225 207 175 206 191 168 143 180 223 153 169 247 227 207 243 171 284 239 226 230 260 255 243 225 214
289 283 259 254 254 250 242 262 263 269 270 280 282 292 262 251 247 259 266 276 251 229 218 230 199 168 182 190 25 139 70 163 244 150 222 157 259 262 19 192 261 272 257 239 235
275 281 266 254 245 241 235 241 257 274 282 272 292 253 261 237 225 243 250 210 219 217 217 208 172 180 111 120 34 355 184 210 289 197 144 181 261 255 105 164 282 281 278 261 260
269 271 268 261 236 230 229 227 237 264 268 251 244 286 245 227 211 225 218 203 164 136 149 157 133 170 120 148 199 188 213 219 218 210 189 204 255 272 246 281 269 275 272 263 252
268 264 258 258 236 229 215 197 118 270 209 206 198 227 303 223 174 195 190 169 128 156 177 203 182 206 188 195 184 171 183 196 230 197 169 230 250 261 258 293 284 278 264 256 247
263 259 259 250 258 228 204 204 162 128 267 223 244 233 244 19 195 207 171 168 167 176 136 145 228 181 164 191 158 154 173 215 297 142 176 294 264 258 269 240 236 255 266 256 246
267 257 253 247 240 236 201 204 197 198 258 225 216 230 222 222 245 214 173 164 168 171 194 201 211 164 176 164 180 185 174 174 201 74 235 312 275 233 258 214 249 255 249 263 251
269 254 250 252 243 228 194 186 193 144 267 229 199 215 181 172 244 203 195 169 191 199 160 235 188 172 177 205 182 214 160 172 166 127 239 53 284 288 256 268 237 259 246 248 265
266 258 247 247 204 182 171 171 160 97 254 214 178 170 165 181 140 222 182 192 182 160 157 218 160 154 196 188 178 212 166 192 156 148 9 188 303 275 322 293 260 253 278 280 276
258 252 246 225 171 191 164 164 136 200 230 272 154 178 164 194 192 123 150 223 161 169 213 202 192 173 187 153 175 134 94 61 55 99 257 177 183 221 183 215 258 165 317 325 323
255 242 236 197 170 167 157 137 190 209 133 206 192 188 186 188 194 175 170 191 177 165 198 129 188 186 150 110 128 130 135 86 0 192 241 289 193 252 275 266 237 275 297 314 327
250 230 233 176 164 150 143 168 187 203 224 183 171 200 196 170 202 173 172 188 205 170 159 181 204 164 180 175 164 183 178 171 188 193 208 153 229 242 215 276 269 270 282 287 334
232 214 209 178 166 155 169 177 198 188 206 175 162 190 208 193 194 177 192 197 196 188 180 187 225 155 173 163 155 203 202 177 105 52 112 208 282 289 256 266 275 298 308 319 30
201 176 167 164 163 135 181 218 200 214 3 125 197 176 191 194 178 190 187 201 206 204 197 204 190 206 166 110 314 184 169 169 198 168 239 251 264 236 257 233 285 295 287 308 76
121 128 163 154 135 131 200 217 195 149 128 284 233 216 198 179 201 201 200 214 199 198 189 171 155 177 136 200 178 151 188 132 148 161 205 213 253 223 241 200 141 81 44 68 82
115 135 152 154 120 183 208 164 126 120 156 276 302 255 226 208 197 208 225 217 209 176 194 186 135 153 199 350 350 203 185 199 199 206 220 110 259 320 165 121 113 73 12 14 51
126 104 128 185 162 171 61 135 108 153 213 198 250 224 312 244 217 202 187 223 206 188 187 181 187 137 25 352 2 214 194 188 171 109 193 177 246 90 137 142 162 200 353 352 350
120 122 68 36 82 133 130 137 145 180 245 199 204 258 202 270 260 249 206 212 189 210 208 170 156 208 210 215 139 185 196 191 194 212 211 213 185 204 210 206 203 232 255 285 281
46 138 151 184 181 133 131 159 153 163 221 191 261 214 189 297 253 221 257 157 248 218 205 182 214 178 211 176 183 197 202 188 192 216 213 229 191 213 206 198 207 209 235 260 264
121 127 50 83 147 133 183 194 176 171 184 219 221 228 182 228 219 259 258 198 197 200 184 184 236 115 200 19 120 174 207 192 205 219 220 137 237 216 190 151 186 198 217 261 287
106 77 100 134 116 135 195 172 175 141 206 231 237 210 204 215 216 208 175 288 279 178 193 173 140 157 218 142 85 270 207 191 210 209 205 198 219 177 190 204 195 192 211 234 274